sat.trackr.live / text

‹ back to catalog

STARLINK-33689

NORAD 63322 · 2025-057R

PAYLOAD ACTIVE UNKNOWN

§ Identity

Operator
Country
US
Launch date
2025-03-18
Launch site
AFETR
Launch vehicle
Mass (kg)
RCS (m²)

Purposes: comms

External: N2YO · Heavens-Above · Gunter

§ Orbital elements

Epoch: 2026-09-20T07:05:55.478400Z

Period
94.27 min
Inclination
42.9974°
Eccentricity
0.0000635
Mean motion
15.27594497 rev/d
Perigee alt
482.6 km
Apogee alt
483.4 km
Semi-major
6,861.1 km
B*
4.0696e-4
RAAN
11.4864°
Arg perigee
169.7796°
Mean anomaly
190.3068°
Rev number
8,554

§ Raw data

STARLINK-336891 63322U 25057R   26263.29578100  .00010958  00000+0  40696-3 0  99962 63322  42.9974  11.4864 0000635 169.7796 190.3068 15.27594497 85548

JSON: /api/v1/satellites/63322 · /tle

For live sub-satellite position, see the globe view (requires WebGL).

§ Visibility from observer

Set your observer location to see the next 7 days of passes ≥ 10°. The values pass through the URL so the page stays shareable.

No JS? Fill the form by hand. The geolocation button needs JavaScript.